Regional Weather Roundup
Issued by NWS

Home | Current Version | Previous Version | Text Only | Print | Product List | Glossary On
Versions: 1 2 3 4 5 6 7 8 9 10 11 12 13 14 15 16 17 18 19 20 21 22 23 24 25 26 27 28 29 30 31 32 33 34 35 36 37 38 39 40 41 42 43 44 45 46 47 48 49 50
000
ASUS43 KMPX 161301
RWRMN
WEATHER ROUNDUP FOR MINNESOTA
NATIONAL WEATHER SERVICE TWIN CITIES/CHANHASSEN MN
700 AM CST MON JAN 16 2017


NOTE: "FAIR" INDICATES FEW OR NO CLOUDS BELOW 12,000 FEET WITH NO
SIGNIFICANT WEATHER AND/OR OBSTRUCTIONS TO VISIBILITY. N/A MEANS
CURRENT SKY AND/OR WEATHER CONDITIONS ARE NOT AVAILABLE.

MNZ060>063-068>070-161400-
   Twin Cities Metro

CITY           SKY/WX    TMP DP  RH WIND       PRES   REMARKS
TWIN CITIES    CLOUDY    18  13  80 E6        30.18R WCI  10
ST PAUL        CLOUDY    11  11 100 CALM      30.20R
CRYSTAL        CLOUDY    10   6  84 CALM      30.17S FOG
BLAINE         PTCLDY    12  10  92 CALM      30.19R
LAKEVILLE        N/A      9   9 100 CALM      30.16S
EDEN PRAIRIE   CLOUDY    18  13  80 NE3       30.17R
SOUTH ST PAUL  CLOUDY    13  11  90 CALM      30.18S FOG
LAKE ELMO      FAIR      12  10  92 N3        30.19S
$$
MNZ001>005-007-008-013>017-022>024-027-028-161400-
   Northwest Minnesota

CITY           SKY/WX    TMP DP  RH WIND       PRES   REMARKS
BEMIDJI        CLOUDY     3   0  87 CALM      30.05R FOG
HALLOCK        CLOUDY     3  -2  78 S8        30.02R WCI -10
ROSEAU         CLOUDY     7   1  78 S6        30.02R WCI  -3
WARROAD        CLOUDY     9   5  85 SW3       30.01R
THIEF RVR FALL CLOUDY     9   6  88 S8        30.05R WCI  -3
CROOKSTON      CLOUDY     3   1  92 S9        30.07R WCI -11
FOSSTON        CLOUDY    10   9  92 S9        30.05S WCI  -2
DETROIT LAKES  CLOUDY    14  12  92 CALM      30.07R FOG
MOORHEAD       CLOUDY    12  10  92 S12       30.08S WCI  -2
PARK RAPIDS    CLOUDY     5  -1  76 SE9       30.06S HAZE    WCI  -9
MAHNOMEN       FAIR      12   9  87 S8        30.05S WCI   1
$$
MNZ006-009>011-018-025>026-161400-
   North Central Minnesota

CITY           SKY/WX    TMP DP  RH WIND       PRES   REMARKS
BAUDETTE       CLOUDY     6   2  83 SE3       30.01S
FLAG ISLAND    CLOUDY     3   1  92 S7        30.01S WCI  -9
INTL FALLS     CLOUDY     1  -4  79 CALM      30.04R HAZE
WASKISH        CLOUDY     3   0  85 CALM      30.03S
BIG FORK       CLOUDY    10   9  92 S6        30.05R FOG     WCI   1
LONGVILLE      CLOUDY    -2  -6  84 S3        30.07F
GRAND RAPIDS   CLOUDY    13  11  92 S8        30.09S FOG     WCI   2
CRANE LAKE     CLOUDY     3   0  85 CALM      30.09R
ORR            CLOUDY    12   9  85 CALM      30.04R
COOK           CLOUDY     9   7  92 CALM      30.07R
WALKER         FAIR      13  11  90 CALM      30.06R
$$
MNZ012-019>021-037-161400-
   Northeast Minnesota

CITY           SKY/WX    TMP DP  RH WIND       PRES   REMARKS
DULUTH         CLOUDY    16  13  88 W13       30.08F FOG     WCI   2
ELY            CLOUDY     5   3  92 CALM      30.06S
HIBBING        CLOUDY    -8 -10  91 CALM      30.08S
EVELETH        CLOUDY    -3  -8  79 CALM      30.09S
DULUTH HARBOR  CLOUDY    16  12  86 CALM      30.16S FOG
TWO HARBORS    CLOUDY    16  10  79 SW5       30.09S HAZE    WCI   9
SILVER BAY     CLOUDY    12  10  92 CALM      30.08F FOG
GRAND MARAIS     N/A     22  15  75 NW5       30.11R WCI  16
G MARAIS ARPRT CLEAR     18  10  73 W5        30.04R WCI  11
$$
MNZ029>031-032-039>041-046>048-054>057-064-161400-
   West Central Minnesota

CITY           SKY/WX    TMP DP  RH WIND       PRES   REMARKS
FERGUS FALLS   CLOUDY    10   9  92 SE8       30.15S WCI  -1
WHEATON        CLOUDY     9   5  85 SE5       30.13R WCI   0
MORRIS         CLOUDY     9   5  85 SE5       30.10S WCI   0
ALEXANDRIA     CLOUDY    13  10  88 S6        30.10S WCI   4
ELBOW LAKE     FAIR      11   9  91 E7        30.11R FOG     WCI   1
WADENA         CLOUDY     3   0  85 CALM      30.08S FOG
GLENWOOD       CLOUDY    14  12  92 S3        30.11S
APPLETON       CLOUDY     3   0  85 CALM      30.12F
ORTONVILLE     CLOUDY     9   7  92 CALM      30.10F
MADISON        CLOUDY    10   7  85 S5        30.12S WCI   2
WILLMAR        FAIR      12  12 100 CALM      30.14S FOG
$$
MNZ033>034-036-042>043-049>051-058-059-161400-
   Central Minnesota

CITY           SKY/WX    TMP DP  RH WIND       PRES   REMARKS
ST CLOUD       CLOUDY     4   2  91 CALM      30.15S
SAUK CENTRE    FAIR       4   2  91 CALM      30.13S
PAYNESVILLE    CLOUDY    10  10 100 E3        30.13F
AITKIN         CLOUDY    16  10  79 S3        30.08F
PINE RIVER     CLOUDY     5   3  92 CALM      30.12S FOG
BRAINERD       CLOUDY     7   5  91 S6        30.11S FOG     WCI  -3
STAPLES        CLOUDY     3   1  92 S3        30.09S FOG
LONG PRAIRIE   FAIR       3   0  85 SE5       30.12S FOG     WCI  -6
LITTLE FALLS   CLOUDY     3   0  85 CALM      30.14S FOG
LITCHFIELD     CLOUDY    14  12  92 CALM      30.14F FOG
BUFFALO        CLOUDY    10   7  90 CALM      30.17F
MAPLE LAKE     CLOUDY     9   7  93 CALM      30.17S FOG
HUTCHINSON     CLOUDY    14  13  94 NE3       30.16S
$$
MNZ037-044-045-052-053-161400-
   East Central Minnesota

CITY           SKY/WX    TMP DP  RH WIND       PRES   REMARKS
PRINCETON      CLOUDY     7   3  85 CALM      30.16F FOG
MORA           CLOUDY     1  -4  78 CALM      30.18S
CAMBRIDGE      CLOUDY     9   1  72 CALM      30.16F HAZE
RUSH CITY        N/A      3   0  85 CALM      30.18F
MOOSE LAKE     CLOUDY     5   1  85 CALM      30.13S FOG
HINCKLEY       FAIR       1   0  92 CALM      30.16S
CLOQUET        PTCLDY    16  12  86 S6        30.10S FOG     WCI   7
MCGREGOR       CLOUDY    14  12  92 CALM      30.11S
$$
MNZ071>073-080-081-089-090-097-098-161400-
   Southwest Minnesota

CITY           SKY/WX    TMP DP  RH WIND       PRES   REMARKS
MONTEVIDEO     CLOUDY    12   9  85 S5        30.14S WCI   4
GRANITE FALLS  CLOUDY    16  14  93 E5        30.14F WCI   9
CANBY            N/A     20  17  87 CALM      30.12S
MARSHALL       CLOUDY    16  13  88 CALM      30.12R
REDWOOD FALLS  CLOUDY    19  15  84 NE3       30.13S
OLIVIA         CLOUDY    12  10  92 CALM      30.13F
PIPESTONE      PTCLDY    21  18  86 CALM      30.07F
WINDOM         CLOUDY    27  25  93 SE5       30.10S WCI  21
WORTHINGTON    CLOUDY    27  23  85 E3        30.09F
JACKSON        CLOUDY    27  25  93 CALM      30.10S
TRACY          CLOUDY    23  18  82 SW5       30.11R WCI  17
SLAYTON        CLOUDY    17  15  91 CALM      30.10R
$$
MNZ065>067-074>077-082>085-091>093-161400-
   South Central Minnesota

CITY           SKY/WX    TMP DP  RH WIND       PRES   REMARKS
MANKATO        CLOUDY    19  16  88 E5        30.15S WCI  12
NEW ULM        CLOUDY    21  16  79 CALM      30.13S
ST JAMES       CLOUDY    23  21  93 CALM      30.14S
FAIRMONT       CLOUDY    28  26  92 SE5       30.12S WCI  23
GLENCOE        CLOUDY    16  15  97 CALM      30.15R
FARIBAULT        N/A     16  12  86 CALM      30.15F
OWATONNA       CLOUDY    19  14  79 CALM      30.14S
WASECA         CLOUDY    23  19  86 E5        30.16R WCI  17
ALBERT LEA     CLOUDY    28  27  93 SE6       30.13S FOG     WCI  22
$$
MNZ078>079-086>088-094>096-161400-
   Southeast Minnesota

CITY           SKY/WX    TMP DP  RH WIND       PRES   REMARKS
ROCHESTER      CLOUDY    24  21  88 SE7       30.14F WCI  16
RED WING       CLOUDY    12  10  92 CALM      30.19S FOG
STANTON        CLOUDY    16  11  83 E3        30.15S
DODGE CENTER   CLOUDY    18  16  93 CALM      30.13S
WINONA           N/A     18  14  86 CALM      30.22S
AUSTIN         MIX PCPN  28  27  93 S5        30.13F WCI  23
PRESTON        MIX PCPN  26  24  91 CALM      30.16R
$$
ABBREVIATIONS USED IN REMARKS
   TC - TEMPERATURES IN CELSIUS
  WCI - WIND CHILL INDEX
   HX - HEAT INDEX
  VSB - VISIBILITY
$$



USA.gov is the U.S. government's official web portal to all federal, state and local government web resources and services.